Weather in Monrovia

Liberia     6°20′11″N   10°44′16″W
temp.,
°C
wind,
m/s
gust,
m/s
humid.,
%
clouds,
%
prec.,
mm/h
press.,
hPa
HPBL,
m
1 march, mon
mon100:00+26sw348492 0.0 1010286
03:00+25sw228485 0.0 1008298
06:00+25sse018491 0.0 1008270
09:00+26nne2283100 0.0 1011254
12:00+27nnw118196 0.0 1010188
15:00+28w227364 0.0 1007573
18:00+27wsw347860 0.1 1008302
21:00+26ssw348532 0.0 1009247
2 march, tue
tue200:00+26ssw128620 0.0 1010210
03:00+26ssw12857 0.0 1008216
06:00+25ene11865 0.0 1008125
09:00+27nne228118 0.0 1011236
12:00+28wsw227245 0.1 1010544
15:00+29w337387 0.1 1008442
18:00+28wnw457883 0.4 1008385
21:00+27wnw228547 0.7 101055
3 march, wed
wed300:00+26sw348724 0.7 1010203
03:00+26sw34880 0.0 1009287
06:00+26sw34873 0.1 1010271
09:00+28wsw348180 0.2 1012412
12:00+29w447390 0.5 1012640
15:00+28w457699 0.3 1009515
18:00+28w468285 0.4 1009482
21:00+26wnw358850 1.8 1011187
4 march, thu
thu400:00+26w348927 2.0 1012217
03:00+26w35890 0.3 1009351
06:00+26wsw46893 0.3 1010429
09:00+27wsw458431 0.2 1011581
12:00+28w457762 0.6 1011573
15:00+29w567551 0.1 1008724
18:00+28w578257 0.2 1008584
21:00+26w588752 4.8 1010298
5 march, fri
fri500:00+26w468977 5.3 1010340
03:00+26w578982 0.0 1008484
06:00+26wsw578849 0.1 1008491
09:00+27w468572 2.4 1011354
12:00+29wsw567382 4.8 1010728
15:00+28wsw677769 1.0 1008878
18:00+27w468483 4.6 1008500
21:00+27wsw478799 1.5 1010415